Location: Cicognara
(44.9500°N, 10.4667°E)
Time: 15:24:00
(UTC+00:00)

NOSS 3-1 (C) - Pass Details

Date: 20 June 2021
Orbit: 722 x 1486 km, 63.4° (Epoch: 30 July)

Event Time Altitude Azimuth Distance (km) Brightness Sun altitude
Exits shadow 21:59:28 23° 114° (ESE) 1,657 4.3 -19.2°
Maximum altitude 21:59:41 23° 110° (ESE) 1,660 4.4 -19.2°
Drops below altitude 10° 22:04:10 10° 59° (ENE) 2,567 5.8 -19.5°
Sets 22:07:21 0° 47° (NE) 3,643 6.8 -19.6°
